| time (UTC) | temp C | wind direction | speed KPH | gust KPH | rain 1hr cm | rain 24hr cm | rain mn cm | humidity % | barometer mb |
| 20260505003055 | 10 | 18 | 1.6 | 6.4 | 0.00 | 0.03 | 0.03 | 58 | 1012.0 |
| 20260505001558 | 10 | 56 | 0.0 | 4.8 | 0.00 | 0.03 | 0.03 | 58 | 1012.0 |
| 20260505000115 | 10 | 0 | 0.0 | 3.2 | 0.00 | 0.03 | 0.03 | 60 | 1012.0 |
| 20260504234558 | 10 | 0 | 0.0 | 4.8 | 0.00 | 0.03 | 0.03 | 60 | 1011.9 |
| 20260504233108 | 10 | 0 | 0.0 | 1.6 | 0.00 | 0.03 | 0.03 | 61 | 1012.0 |
| 20260504231555 | 9 | 0 | 0.0 | 4.8 | 0.03 | 0.03 | 0.03 | 65 | 1012.0 |
| 20260504230056 | 9 | 0 | 3.2 | 14.5 | 0.03 | 0.03 | 0.03 | 65 | 1011.5 |
| 20260504224609 | 8 | 94 | 0.0 | 3.2 | 0.03 | 0.03 | 0.03 | 77 | 1011.9 |
| 20260504223131 | 8 | 233 | 1.6 | 9.7 | 0.03 | 0.03 | 0.03 | 67 | 1012.4 |
| 20260504221600 | 11 | 241 | 3.2 | 9.7 | 0.00 | 0.00 | 0.00 | 54 | 1012.8 |
| 20260504220100 | 11 | 0 | 0.0 | 11.3 | 0.00 | 0.00 | 0.00 | 46 | 1011.9 |
| 20260504214559 | 11 | 0 | 4.8 | 12.9 | 0.00 | 0.00 | 0.00 | 45 | 1011.1 |
| 20260504213105 | 12 | 36 | 4.8 | 17.7 | 0.00 | 0.00 | 0.00 | 40 | 1011.2 |
| 20260504211602 | 13 | 30 | 8.0 | 20.9 | 0.00 | 0.00 | 0.00 | 37 | 1011.4 |
| 20260504210100 | 15 | 27 | 0.0 | 22.5 | 0.00 | 0.00 | 0.00 | 33 | 1011.2 |
| 20260504204557 | 17 | 49 | 1.6 | 11.3 | 0.00 | 0.00 | 0.00 | 26 | 1010.8 |
| 20260504203111 | 16 | 0 | 1.6 | 12.9 | 0.00 | 0.00 | 0.00 | 30 | 1010.7 |
| 20260504201601 | 15 | 5 | 0.0 | 9.7 | 0.00 | 0.00 | 0.00 | 29 | 1010.9 |
| 20260504200115 | 15 | 194 | 1.6 | 29.0 | 0.00 | 0.00 | 0.00 | 30 | 1011.1 |
| 20260504194559 | 15 | 283 | 9.7 | 20.9 | 0.00 | 0.00 | 0.00 | 31 | 1011.5 |
| 20260504193056 | 15 | 210 | 6.4 | 22.5 | 0.00 | 0.00 | 0.00 | 29 | 1011.2 |
| 20260504191602 | 16 | 211 | 6.4 | 22.5 | 0.00 | 0.00 | 0.00 | 25 | 1011.3 |
| 20260504190100 | 16 | 205 | 4.8 | 16.1 | 0.00 | 0.00 | 0.00 | 26 | 1011.2 |
| 20260504184600 | 16 | 171 | 3.2 | 16.1 | 0.00 | 0.00 | 0.00 | 27 | 1011.3 |
| 20260504183057 | 16 | 252 | 4.8 | 9.7 | 0.00 | 0.00 | 0.00 | 27 | 1011.6 |
| 20260504181557 | 17 | 187 | 4.8 | 14.5 | 0.00 | 0.00 | 0.00 | 26 | 1011.7 |
| 20260504180056 | 17 | 16 | 3.2 | 9.7 | 0.00 | 0.00 | 0.00 | 26 | 1011.9 |
| 20260504174615 | 16 | 150 | 1.6 | 8.0 | 0.00 | 0.00 | 0.00 | 28 | 1012.2 |
| 20260504173100 | 15 | 66 | 0.0 | 6.4 | 0.00 | 0.00 | 0.00 | 30 | 1012.7 |
| 20260504171557 | 14 | 20 | 3.2 | 9.7 | 0.00 | 0.00 | 0.00 | 31 | 1013.0 |
| 20260504160107 | 12 | 206 | 4.8 | 22.5 | 0.00 | 0.00 | 0.00 | 35 | 1012.8 |
| 20260504150106 | 12 | 260 | 1.6 | 11.3 | 0.00 | 0.00 | 0.00 | 34 | 1012.9 |
| 20260504090104 | 8 | 241 | 0.0 | 3.2 | 0.00 | 0.00 | 0.00 | 34 | 1013.0 |
| 20260504081555 | 8 | 236 | 1.6 | 4.8 | 0.00 | 0.00 | 0.00 | 35 | 1013.2 |
| 20260504044605 | 10 | 212 | 1.6 | 6.4 | 0.00 | 0.00 | 0.00 | 34 | 1014.8 |
| 20260504043059 | 10 | 245 | 1.6 | 12.9 | 0.00 | 0.00 | 0.00 | 34 | 1014.8 |
| 20260504041557 | 11 | 238 | 1.6 | 6.4 | 0.00 | 0.00 | 0.00 | 33 | 1014.9 |
| 20260504040114 | 12 | 0 | 3.2 | 8.0 | 0.00 | 0.00 | 0.00 | 29 | 1014.9 |
| 20260504034622 | 12 | 210 | 0.0 | 6.4 | 0.00 | 0.00 | 0.00 | 29 | 1015.1 |
| 20260504033058 | 13 | 219 | 0.0 | 11.3 | 0.00 | 0.00 | 0.00 | 28 | 1015.1 |
| 20260504031556 | 13 | 212 | 6.4 | 17.7 | 0.00 | 0.00 | 0.00 | 29 | 1015.1 |
| 20260504030121 | 13 | 210 | 4.8 | 17.7 | 0.00 | 0.00 | 0.00 | 30 | 1015.1 |
| 20260504024600 | 13 | 171 | 4.8 | 19.3 | 0.00 | 0.00 | 0.00 | 30 | 1014.9 |
| 20260504023057 | 13 | 224 | 6.4 | 20.9 | 0.00 | 0.00 | 0.00 | 30 | 1014.9 |
| 20260504021557 | 13 | 184 | 6.4 | 17.7 | 0.00 | 0.00 | 0.00 | 28 | 1014.8 |
| 20260504020107 | 13 | 201 | 4.8 | 14.5 | 0.00 | 0.00 | 0.00 | 27 | 1014.8 |
| 20260504014604 | 14 | 119 | 6.4 | 14.5 | 0.00 | 0.00 | 0.00 | 27 | 1014.9 |
| 20260504013058 | 14 | 229 | 3.2 | 6.4 | 0.00 | 0.00 | 0.00 | 27 | 1014.8 |
| 20260504011556 | 15 | 192 | 6.4 | 14.5 | 0.00 | 0.00 | 0.00 | 26 | 1014.6 |
| 20260504010058 | 15 | 262 | 1.6 | 8.0 | 0.00 | 0.00 | 0.00 | 25 | 1014.8 |
| 20260504004556 | 15 | 218 | 1.6 | 12.9 | 0.00 | 0.00 | 0.00 | 26 | 1014.9 |